Location: Kuffner-Sternwarte
(48.2130°N, 16.2960°E)
Time: 16:39:29
(UTC+02:00)

ISS - Visible Passes

Search period start: 07 May 2021 00:00
Search period end: 17 May 2021 00:00
Orbit: 418 x 421 km, 51.6° (Epoch: 07 May)

Date Brightness Start Highest point End Pass type
(mag) Time Alt. Az. Time Alt. Az. Time Alt. Az.
07 May -2.0 02:02:25 28° E 02:02:25 28° E 02:04:10 10° ENE visible
07 May -2.9 03:35:21 17° W 03:37:44 48° N 03:41:03 10° ENE visible
08 May -0.9 01:16:28 11° ENE 01:16:28 11° ENE 01:16:41 10° ENE visible
08 May -3.2 02:49:24 42° WNW 02:50:14 56° NNW 02:53:35 10° ENE visible
08 May -2.7 04:24:06 10° WNW 04:27:23 47° N 04:30:41 10° E visible
09 May -3.0 02:03:26 51° NE 02:03:26 51° NE 02:06:08 10° ENE visible
09 May -2.7 03:36:36 10° WNW 03:39:52 44° N 03:43:08 10° ENE visible
10 May -1.6 01:17:27 21° ENE 01:17:27 21° ENE 01:18:42 10° ENE visible
10 May -2.7 02:50:23 21° WNW 02:52:20 45° N 02:55:37 10° ENE visible
10 May -3.3 04:26:06 10° WNW 04:29:28 65° NNE 04:32:50 10° E visible
11 May -2.9 02:04:21 44° NW 02:04:50 48° N 02:08:08 10° ENE visible
11 May -3.0 03:38:39 10° WNW 03:41:59 53° NNE 03:45:18 10° E visible
12 May -2.5 01:18:16 39° NE 01:18:16 39° NE 01:20:40 10° ENE visible
12 May -2.7 02:51:12 10° WNW 02:54:28 47° N 02:57:45 10° E visible
12 May -3.8 04:28:03 10° WNW 04:31:25 70° SSW 04:34:47 10° ESE visible
13 May -1.5 00:32:07 19° ENE 00:32:07 19° ENE 00:33:13 10° ENE visible
13 May -2.6 02:05:02 21° WNW 02:06:57 44° N 02:10:13 10° ENE visible
13 May -3.7 03:40:36 10° WNW 03:44:00 85° NNE 03:47:23 10° ESE visible
13 May -0.9 23:45:44 10° ENE 23:45:44 10° ENE 23:45:46 10° ENE visible
14 May -2.7 01:18:38 37° NW 01:19:24 45° N 01:22:41 10° ENE visible
14 May -3.4 02:53:09 10° WNW 02:56:32 65° NNE 02:59:53 10° E visible
14 May -3.0 04:30:09 10° W 04:33:12 32° SW 04:36:15 10° SSE visible
14 May -1.9 21:17:08 10° SSE 21:18:41 13° SE 21:20:15 10° ESE visible
14 May -3.9 22:51:37 10° SW 22:54:58 64° SSE 22:58:19 10° ENE visible
15 May -2.8 00:28:36 10° W 00:31:53 48° N 00:35:11 10° ENE visible
15 May -3.0 02:05:42 10° WNW 02:09:02 54° NNE 02:12:22 10° E visible
15 May -3.6 03:42:36 10° WNW 03:45:51 47° SSW 03:49:07 10° SE visible
15 May -3.5 22:04:22 10° SW 22:07:35 43° SSE 22:10:49 10° ENE visible
15 May -3.1 23:41:02 10° W 23:44:22 56° NNW 23:47:43 10° ENE visible
16 May -2.8 01:18:14 10° WNW 01:21:31 47° N 01:24:48 10° E visible
16 May -3.9 02:55:06 10° WNW 02:58:28 70° SSW 03:01:50 10° ESE visible
16 May -2.0 04:32:55 10° WSW 04:34:47 14° SW 04:36:40 10° S visible
16 May -2.9 21:17:17 10° SSW 21:20:14 29° SE 21:23:13 10° E visible
16 May -3.5 22:53:31 10° WSW 22:56:52 69° NNW 23:00:15 10° ENE visible
